Zurück zum Katalog

INTELSAT 906

AktivKommunikationGEO
NORAD 27513·PAYLOAD· XX

Gestartet Sep 6, 2002 von Guiana Space Centre

Loading…

TLE

AktuellSource: CelesTrak SupGP

Epoche: Sep 14, 2026, 00:00 UTC

1 27513C 02041A   26257.00000000  .00000104  00000+0  00000+0 0  2577
2 27513   6.0223  71.7867 0005463 104.0991 241.2487  1.00274158    18

Verfolge INTELSAT 906 in Echtzeit mit AllMySat

Download on the App Store